Regional Weather Roundup
Issued by NWS

Home | Current Version | Previous Version | Text Only | Print | Product List | Glossary Off
Versions: 1 2 3 4 5 6 7 8 9 10 11 12 13 14 15 16 17 18 19 20 21 22 23 24 25 26 27 28 29 30 31 32 33 34 35 36 37 38 39 40 41 42 43 44 45 46 47 48 49 50

000
ASUS43 KFSD 250510
RWRSD

WEATHER ROUNDUP FOR SOUTH DAKOTA
NATIONAL WEATHER SERVICE SIOUX FALLS SD
1200 AM CDT SAT OCT 25 2014

NOTE: "FAIR" INDICATES FEW OR NO CLOUDS BELOW 12,000 FEET WITH NO
SIGNIFICANT WEATHER AND/OR OBSTRUCTIONS TO VISIBILITY.


SDZ001>005-009-010-012>017-250600-
NORTHWEST AND NORTH CENTRAL SOUTH DAKOTA

CITY           SKY/WX    TMP DP  RH WIND       PRES   REMARKS
BUFFALO          N/A     52  31  44 W6        30.06R
FAITH            N/A     53  34  48 N9        30.10R
MOBRIDGE       CLOUDY    56  38  50 NW6       30.06R
$$

SDZ012>016-024>037-041>051-057-063-072>074-250600-
SOUTHWEST AND SOUTH CENTRAL SOUTH DAKOTA

CITY           SKY/WX    TMP DP  RH WIND       PRES   REMARKS
RAPID CTY ARPT CLEAR     45  33  63 NW8       30.13R
PIERRE         CLOUDY    57  36  45 N12       30.06R
CUSTER         CLEAR     40  33  76 N5        30.19R
ELLSWORTH AFB  PTCLDY    47  33  58 NW7       30.12S
PHILIP         MOCLDY    49  36  61 W6        30.08F
PINE RIDGE     CLEAR     41  35  79 CALM      30.13R
SPEARFISH      FAIR      41  32  70 S6        30.16R
WINNER         FAIR      54  32  43 W6        30.06R
$$

SDZ004>011-016>023-039-040-250600-
NORTHEAST SOUTH DAKOTA

CITY           SKY/WX    TMP DP  RH WIND       PRES   REMARKS
ABERDEEN       MOCLDY    58  38  47 NW12      30.03R
WATERTOWN      CLOUDY    55  42  61 NW6       30.01R
SISSETON         N/A     57  35  43 N12       29.98R
$$

SDZ017-020-022-023-036>040-048>070-250600-
SOUTHEAST SOUTH DAKOTA

CITY           SKY/WX    TMP DP  RH WIND       PRES   REMARKS
SIOUX FALLS    CLEAR     54  41  61 CALM      30.01R
HURON          CLOUDY    56  39  53 N8        30.02R
CHAMBERLAIN    CLEAR     44  36  73 CALM      30.05R
MITCHELL       PTCLDY    56  38  50 NW3       30.01F
YANKTON        CLEAR     52  43  71 CALM      30.01S
$$

ABBREVIATIONS USED IN REMARKS
   TC - TEMPERATURE IN CELSIUS
  WCI - WIND CHILL INDEX
   HX - HEAT INDEX
  VSB - VISIBILITY




USA.gov is the U.S. government's official web portal to all federal, state and local government web resources and services.